Wind_Speed
27 27 26 25 26 26 26 25 23 22 21 21 20 18 16 16 16 15 14 13 13 13 13 13 13 13 13 13 13 14 14 14 14 14 14 15 15 14 14 14 15 14 14 13 12 11 11 11 9 7 7 7 7 6 6 6 6 7 8 8 7 6 5 5 6 8 10 11 12 12 11 11 11 10 10 11 12 13 14 14 14 14 15 15 15
27 27 27 27 27 27 26 26 25 24 24 24 23 21 18 16 16 16 17 16 14 14 14 13 13 13 14 14 14 14 15 15 15 16 16 16 16 15 15 15 16 15 14 14 13 12 13 12 11 8 8 9 9 8 7 7 7 8 8 8 9 8 7 7 6 7 10 13 13 13 12 11 11 11 12 12 13 14 15 15 14 14 14 14 14
24 25 26 27 27 27 26 25 24 24 24 24 25 23 20 17 15 16 17 17 16 15 15 14 14 14 14 14 15 16 16 16 16 16 17 17 17 16 16 15 16 15 15 15 14 13 13 13 12 10 9 10 11 10 10 9 10 10 10 9 9 9 8 8 8 8 11 14 15 15 15 14 15 15 14 15 15 15 16 16 16 15 15 15 14
23 23 25 26 26 26 26 25 25 24 24 24 26 25 23 19 17 16 16 17 17 16 16 15 15 15 15 15 16 16 16 16 15 16 17 17 17 17 16 16 16 16 16 15 15 14 15 15 14 12 10 11 12 11 11 12 12 13 13 11 10 10 9 10 10 10 11 14 16 18 18 18 18 18 18 18 18 17 17 18 18 18 17 15 14
23 24 25 25 26 26 27 26 25 24 24 24 25 26 25 22 20 18 17 17 17 17 16 17 17 17 17 17 17 17 17 17 17 17 17 18 18 18 18 18 18 17 17 17 16 16 15 16 15 14 13 14 13 13 12 13 13 14 15 14 13 11 11 11 12 13 13 15 18 19 19 20 21 21 19 19 19 19 20 20 20 19 17 16 16
21 23 24 24 25 26 26 26 26 25 24 23 23 24 24 24 23 22 20 19 19 19 18 19 19 19 19 18 18 18 18 18 19 19 19 20 20 20 20 20 19 19 19 19 18 17 17 17 16 15 15 16 16 15 14 14 14 14 14 15 14 13 13 13 13 14 15 16 18 20 20 21 22 22 21 20 20 22 23 23 22 20 20 20 19
18 18 20 22 23 24 24 24 24 23 21 20 20 20 21 22 23 23 22 21 20 20 20 20 21 21 20 20 20 20 20 20 21 21 22 22 22 23 22 22 21 21 20 20 19 19 19 19 18 17 17 17 17 17 16 16 15 15 15 15 15 15 16 16 15 16 17 17 18 19 20 21 21 22 23 22 22 22 22 21 23 25 25 24 23
13 11 12 14 17 19 19 18 17 17 17 15 14 15 17 19 21 22 22 21 20 19 18 19 20 21 21 22 22 22 22 22 22 23 23 24 24 24 24 24 23 22 21 21 20 20 20 20 20 20 19 18 18 17 17 17 17 18 17 17 17 18 19 18 18 18 18 17 19 20 20 21 22 23 23 23 22 22 19 17 20 25 26 25 25
9 9 9 11 12 12 12 14 15 16 18 18 16 14 14 16 18 19 19 20 20 19 17 17 18 20 22 22 23 23 24 25 25 24 24 24 25 25 25 25 25 24 23 23 22 22 21 21 21 21 21 20 20 19 18 18 18 19 19 19 19 20 21 21 20 20 19 18 19 21 20 21 23 23 23 23 22 22 22 19 20 24 25 25 26
4 7 10 14 15 12 9 10 14 17 19 21 21 19 16 14 16 17 17 18 18 18 18 17 18 20 22 23 24 24 25 27 27 27 26 26 26 26 27 27 27 27 26 26 25 25 24 23 23 22 22 22 22 22 21 20 19 20 20 19 20 21 21 22 22 21 20 19 20 21 19 21 24 24 23 25 25 24 24 22 22 24 24 23 24
10 10 6 9 13 13 9 9 12 14 16 18 18 18 15 15 17 18 16 15 15 15 15 15 16 17 19 21 24 25 26 27 28 29 29 28 28 28 29 29 29 29 29 29 29 28 27 26 26 25 24 24 24 23 23 22 21 21 21 20 20 21 22 23 24 23 22 21 22 22 20 22 26 27 26 28 28 26 25 23 22 22 22 18 19
19 18 13 8 3 3 4 6 7 7 9 11 11 10 10 14 20 21 18 16 15 14 13 12 12 13 14 16 19 22 26 28 28 29 30 30 30 29 30 30 31 31 31 31 31 30 30 29 28 27 27 26 25 25 24 24 23 23 23 22 22 22 23 24 25 25 25 24 23 24 24 25 27 29 29 29 28 27 25 24 23 22 21 18 18
18 19 17 17 16 13 11 10 9 7 5 4 5 5 5 8 14 17 16 17 18 17 16 14 11 10 10 11 13 15 20 25 28 30 30 30 29 29 30 31 31 31 31 31 31 31 30 30 29 29 29 28 27 26 25 25 24 24 23 23 23 24 24 24 25 26 27 27 26 27 28 28 28 29 30 29 27 26 26 26 25 23 22 21 22
20 21 19 18 18 18 17 17 16 13 12 10 7 5 3 4 7 8 9 10 12 15 17 16 14 13 12 12 13 14 14 17 21 25 27 28 27 27 28 29 30 31 31 31 31 31 31 30 30 30 30 29 28 27 26 25 25 24 24 24 25 25 24 25 25 25 26 27 28 29 29 29 30 30 29 28 28 27 27 27 26 24 24 25 26
24 24 22 20 19 18 17 17 16 15 14 14 13 10 7 3 2 3 4 4 5 7 9 11 14 15 15 15 16 17 17 15 16 18 20 21 21 21 22 24 26 28 29 30 30 30 30 30 30 30 30 30 29 28 26 25 24 24 25 25 26 27 27 27 26 26 26 26 27 29 29 29 30 30 29 28 28 28 27 27 26 25 27 27 28
24 24 23 22 22 21 20 18 17 15 12 11 11 10 9 7 6 4 2 0 2 3 4 5 8 10 11 11 12 14 15 15 15 18 18 17 17 17 17 17 18 20 22 23 24 26 26 27 28 28 29 29 29 27 25 24 23 24 26 27 28 28 29 28 28 27 28 27 27 27 27 27 27 27 27 26 26 27 27 27 26 26 26 25 25
22 22 22 22 21 21 20 20 20 18 14 11 10 9 8 9 8 8 7 6 3 2 2 3 5 6 5 5 6 7 6 4 8 15 17 16 16 16 16 16 16 16 16 16 17 17 18 19 21 23 25 25 25 25 24 23 23 24 25 26 27 28 29 28 27 27 28 28 27 27 27 26 25 24 24 23 23 24 26 27 27 26 24 20 19
20 20 20 20 20 20 19 18 18 18 16 15 13 10 9 11 11 10 10 11 10 9 8 8 8 9 11 10 6 5 8 6 1 7 10 11 12 12 14 14 14 15 15 14 13 13 13 13 14 15 18 19 18 18 18 19 20 21 23 24 26 28 29 28 28 28 27 27 27 26 25 25 23 22 22 21 21 21 24 27 27 25 24 21 20
18 17 17 17 18 18 18 17 17 17 17 17 16 14 14 15 15 15 15 15 15 14 13 14 14 14 16 16 12 10 8 4 3 5 5 4 6 7 10 11 12 12 13 13 12 12 12 12 11 11 12 13 13 14 14 15 17 18 20 21 24 27 29 28 27 27 27 26 26 26 26 25 24 23 23 22 22 22 25 27 27 26 26 26 26
16 15 14 14 15 16 17 17 17 18 18 18 18 17 18 18 18 18 17 17 16 15 15 16 17 17 17 18 15 12 10 7 7 7 7 6 5 3 4 6 7 8 10 11 12 12 11 11 10 10 11 11 12 13 13 14 15 17 18 19 22 24 25 25 25 25 26 26 27 27 27 26 26 25 25 24 24 25 26 26 27 27 27 28 29
13 13 12 13 13 14 15 16 16 16 16 16 17 18 18 18 17 16 16 16 16 15 14 15 16 17 17 18 17 15 12 9 8 7 6 7 7 5 4 5 5 5 6 7 9 10 12 13 13 12 13 13 13 14 14 14 16 17 18 19 20 20 20 21 22 22 23 25 26 27 27 27 26 26 26 25 25 24 25 26 26 27 27 28 29
10 10 11 12 12 13 13 13 14 14 13 13 15 16 16 16 15 14 14 13 13 14 14 15 16 17 18 17 16 15 13 10 10 9 6 6 7 6 6 6 6 7 6 6 7 8 9 11 13 14 14 15 15 16 16 17 17 18 19 20 20 21 21 22 22 21 21 22 23 25 26 27 27 27 27 27 26 26 26 27 27 28 28 29 29
9 9 10 11 11 12 12 11 11 12 13 12 12 13 14 14 14 14 13 12 12 13 15 15 16 17 17 17 16 15 12 10 10 11 10 9 8 6 5 5 5 6 7 7 8 8 8 9 10 11 12 13 14 14 15 16 17 17 18 19 19 19 19 21 22 23 23 23 23 25 26 26 27 27 27 27 27 27 28 28 28 29 30 32 32
9 10 10 10 10 10 11 10 10 10 10 10 10 12 13 13 14 14 13 13 13 14 15 15 16 16 16 16 15 14 12 10 10 10 11 10 9 8 6 5 5 5 6 7 8 8 9 9 9 9 10 11 11 11 12 12 13 15 17 18 18 18 18 19 21 21 21 21 22 23 25 25 26 26 27 27 27 28 28 29 29 30 31 32 33
10 11 11 11 10 10 9 10 10 9 8 8 9 10 11 12 13 13 13 12 12 13 14 14 15 16 16 16 15 14 12 11 11 11 11 11 10 10 8 7 6 6 7 9 9 9 9 9 9 9 9 9 10 10 11 11 12 13 15 17 18 19 19 20 21 19 19 18 18 18 21 23 24 25 25 25 26 27 28 28 29 30 30 30 31
9 10 11 11 11 10 9 9 10 8 7 6 7 8 9 10 11 11 11 11 11 12 13 14 15 15 15 15 15 14 13 13 13 13 13 12 11 10 9 8 8 8 9 10 10 10 10 9 9 8 8 7 7 8 9 10 11 12 13 14 16 17 18 19 20 19 19 18 16 17 20 22 23 23 23 23 24 25 26 25 27 28 27 25 27
8 9 10 10 10 10 10 10 9 8 7 5 5 6 7 8 9 10 9 9 10 11 12 13 13 14 14 14 14 14 14 15 16 15 15 14 13 11 10 10 9 10 10 11 11 10 10 10 9 9 9 9 10 10 11 12 13 13 13 14 15 15 16 17 18 19 20 21 21 22 24 24 22 22 23 23 24 25 24 22 24 24 21 20 24
7 8 8 8 9 9 9 9 8 8 8 6 5 6 7 8 8 8 8 8 9 10 11 12 11 12 12 12 12 14 16 18 18 18 17 16 15 14 13 13 13 13 13 13 12 12 11 12 13 14 14 14 14 14 15 15 15 15 15 15 15 15 15 16 18 18 19 21 23 24 25 24 24 25 26 25 26 27 24 21 21 21 18 17 20
8 8 8 8 8 8 8 8 7 7 7 6 5 6 7 7 7 7 7 7 8 9 10 10 10 10 11 10 11 14 16 17 17 17 17 16 16 15 15 15 15 15 15 15 14 14 14 14 15 16 17 17 17 18 19 21 21 20 19 19 18 17 16 16 17 18 19 20 22 23 23 24 24 25 25 24 26 28 26 22 20 20 18 17 19
9 9 9 9 8 8 8 7 7 6 6 6 5 5 6 7 7 7 7 7 7 8 9 9 9 9 9 9 11 13 14 14 14 15 15 15 15 15 15 15 15 15 15 15 15 17 17 17 16 17 17 17 17 18 20 22 22 22 23 24 22 20 19 18 18 19 20 20 20 21 23 24 25 24 22 21 22 26 27 24 21 19 18 18 19
10 11 10 10 9 8 8 8 7 7 7 7 6 5 5 5 5 5 6 6 7 8 8 8 8 9 9 8 9 11 12 13 13 14 14 14 13 13 13 13 14 14 15 15 15 17 18 18 18 18 19 17 16 17 19 19 18 18 21 22 20 19 19 20 21 23 23 21 20 20 21 22 23 23 23 23 24 26 26 25 22 19 19 19 19
9 10 10 10 9 8 8 8 8 7 7 6 6 6 5 5 4 4 4 5 6 6 6 7 7 8 8 7 6 8 11 12 12 13 13 13 13 12 12 12 12 13 14 15 16 17 18 18 17 18 19 18 18 18 17 16 16 17 18 19 19 18 18 19 22 24 22 21 22 22 21 21 22 23 24 24 26 27 27 25 23 20 19 20 21
7 8 8 8 8 9 9 9 9 9 8 7 6 5 6 5 4 4 4 5 5 4 4 6 7 8 8 7 6 8 10 11 12 12 12 12 12 12 11 11 12 14 15 16 16 17 17 17 16 16 17 17 17 16 14 14 15 16 16 17 18 18 18 19 21 21 20 20 22 23 22 22 22 24 24 24 25 26 26 27 26 23 20 20 22
5 7 7 6 7 8 9 9 10 10 10 9 8 8 7 6 6 6 5 5 4 4 4 6 7 8 8 6 6 8 10 11 11 11 10 10 10 10 10 10 11 13 14 16 16 16 16 17 16 15 14 14 13 13 13 14 15 15 16 16 17 18 19 20 20 20 20 21 22 22 23 24 24 25 25 25 25 25 24 24 24 24 22 21 22
5 5 6 6 6 7 8 9 9 9 10 10 10 9 9 8 8 8 8 7 6 5 7 8 8 8 8 7 8 10 10 10 11 11 9 9 9 10 10 11 11 12 13 14 15 15 16 16 16 15 15 14 14 14 13 14 14 15 16 17 18 19 20 20 20 20 21 21 20 21 23 23 24 25 25 25 24 24 23 23 24 24 24 24 24
4 4 4 4 5 5 6 7 8 8 9 8 8 8 9 9 9 9 9 7 6 6 8 10 9 9 9 9 9 11 11 12 12 11 9 9 9 10 11 11 10 11 11 12 12 13 13 14 14 15 16 16 17 17 16 16 16 17 17 17 18 19 19 19 20 21 21 20 20 21 21 21 22 24 25 26 26 25 24 25 25 25 25 25 24
3 3 4 4 4 4 5 5 6 7 7 7 7 7 7 7 7 8 8 7 6 6 8 10 10 11 11 11 11 12 12 13 12 10 8 8 9 10 10 10 10 10 10 11 11 11 12 12 13 15 17 18 19 19 18 18 18 18 18 18 18 18 19 19 20 20 20 20 20 20 20 20 21 22 23 25 26 27 26 26 26 26 26 25 24
2 3 3 4 4 5 6 6 6 7 7 6 7 7 6 6 6 6 6 6 6 6 8 9 9 10 11 12 12 12 13 13 12 10 8 8 8 9 9 9 9 10 10 11 11 11 12 13 14 15 17 19 20 21 20 20 20 19 18 17 18 18 18 19 19 19 19 20 19 20 20 21 21 21 21 22 24 26 27 27 28 28 28 27 25
3 3 3 4 5 6 6 6 6 7 8 8 8 7 6 6 6 5 4 5 5 6 6 7 7 8 10 10 11 12 13 13 12 10 9 9 9 9 9 9 9 10 10 11 11 12 12 13 15 16 18 19 21 22 22 21 20 19 17 17 17 17 17 17 18 19 20 19 20 20 20 21 21 22 22 22 23 24 25 27 27 27 27 28 28
4 5 5 5 5 6 6 5 6 8 9 9 9 8 7 6 5 4 5 5 6 5 6 6 7 8 8 9 10 12 13 13 12 11 10 10 10 10 10 10 11 11 12 12 13 13 14 15 16 17 18 20 21 22 23 22 21 18 16 15 16 16 17 17 18 19 19 19 20 21 21 23 24 24 24 25 26 26 26 26 26 26 26 27 29
5 5 5 5 5 6 5 4 6 8 9 8 8 7 6 5 5 5 6 6 6 7 7 7 7 8 8 9 9 10 12 12 12 11 11 10 10 10 11 11 12 12 13 14 14 15 16 17 18 19 20 21 22 22 22 23 22 18 15 14 15 16 17 17 17 18 18 19 20 21 22 23 25 25 25 26 26 26 26 27 28 29 28 27 27
4 5 5 5 5 6 5 6 8 9 8 7 7 5 4 3 4 5 6 6 7 8 8 8 8 9 9 8 8 9 10 11 11 11 11 11 11 12 12 11 11 11 12 13 14 15 16 17 18 19 20 21 22 22 22 21 20 17 15 15 16 16 17 18 18 18 19 20 20 21 22 22 23 24 24 25 25 24 24 27 31 35 33 28 26
4 4 5 6 6 7 8 9 10 9 7 6 6 5 3 4 5 5 6 6 7 8 8 9 9 10 9 8 9 10 11 10 10 10 10 10 11 12 12 12 12 12 11 12 13 14 15 16 17 18 19 20 21 22 21 21 19 18 18 18 18 18 18 19 19 19 20 21 22 22 22 22 22 22 23 23 24 24 24 27 30 33 32 29 28
5 6 7 8 9 9 9 8 7 7 6 6 5 4 4 5 6 6 6 7 7 8 8 9 9 10 10 10 10 11 10 10 10 10 10 10 11 11 12 12 13 12 12 12 13 13 14 15 16 17 18 19 20 21 21 21 21 20 19 19 20 20 20 20 20 21 22 24 24 24 24 23 22 22 23 23 23 23 24 25 27 28 30 31 31
5 6 7 7 7 6 5 5 5 5 5 6 7 6 6 6 7 7 7 8 8 8 8 9 10 11 11 11 11 11 11 10 10 10 10 10 11 12 12 13 13 13 13 13 14 14 15 15 16 16 18 18 19 20 21 21 22 21 21 21 22 23 23 23 24 24 24 24 25 25 25 25 25 24 24 24 24 24 24 24 25 26 27 29 30
5 4 4 4 3 3 4 5 5 5 6 7 8 8 7 8 9 9 9 10 10 10 10 11 11 11 11 11 11 11 11 10 9 10 11 11 11 12 12 13 13 14 14 15 16 16 17 17 17 18 18 18 18 19 20 20 21 20 20 21 23 25 26 27 28 27 26 25 26 27 28 30 31 31 31 30 29 27 27 26 26 26 27 27 29
3 3 3 4 3 4 5 7 8 8 8 8 7 8 8 9 11 11 11 12 12 11 10 11 11 11 11 11 11 11 10 10 10 10 11 12 12 12 13 14 15 15 14 15 17 19 19 20 20 20 20 20 20 19 19 19 19 19 20 21 23 25 27 28 29 30 30 30 32 33 34 34 35 34 34 34 33 32 31 30 29 29 29 28 28
2 2 3 4 4 5 7 8 9 9 8 7 7 8 9 9 10 10 10 10 11 10 11 12 12 12 12 12 11 12 12 12 13 12 13 13 13 13 15 16 17 16 15 17 20 22 22 22 22 22 21 21 21 21 21 21 20 20 22 23 24 26 27 28 30 31 32 33 35 34 32 31 30 28 30 33 34 35 36 35 34 34 33 31 30
1 1 2 3 4 6 7 8 8 9 9 8 8 8 8 8 8 9 9 10 10 10 11 12 12 13 13 13 13 14 14 14 15 15 14 14 14 16 18 18 17 18 19 21 23 24 24 23 23 22 22 22 22 23 23 24 24 25 25 26 26 26 26 26 27 29 30 31 33 33 30 29 29 28 30 34 36 37 38 38 38 37 36 33 32
2 2 3 3 4 4 5 6 8 9 9 8 7 7 7 7 8 10 10 11 10 10 11 11 12 13 13 14 14 14 14 15 15 15 15 15 16 17 18 17 19 21 23 23 22 22 22 22 21 21 21 23 24 25 26 27 27 27 27 26 26 25 25 26 27 29 29 30 32 33 32 31 32 33 35 36 37 37 38 39 38 37 35 34 34
4 4 3 3 2 3 4 5 7 8 7 6 6 6 7 7 9 10 10 9 9 9 10 11 13 14 14 13 14 14 14 15 15 15 15 16 16 17 18 20 23 24 24 22 20 20 20 20 19 20 21 23 25 27 27 27 27 26 25 25 25 26 26 27 28 29 30 31 32 33 33 33 34 35 36 36 36 37 38 38 37 37 36 34 33
Wind_Direction
218 220 221 223 225 227 228 228 229 230 231 231 232 235 240 245 247 246 247 247 245 245 247 249 251 253 255 258 258 256 254 253 254 253 252 252 254 258 259 257 257 257 259 259 259 257 260 266 270 272 269 263 262 268 269 274 286 295 295 291 290 288 283 273 264 282 302 313 317 321 324 323 321 325 327 326 327 327 326 326 325 322 319 318 318
219 221 222 224 226 229 231 231 231 233 233 233 234 234 236 241 246 247 247 247 247 249 251 252 255 258 259 261 262 263 265 265 264 261 257 256 257 260 262 260 258 258 259 259 258 256 258 264 268 271 272 267 264 268 275 277 281 290 296 291 286 283 283 283 277 281 297 308 314 316 320 320 314 314 317 316 319 320 319 320 320 321 323 321 319
222 222 222 225 227 228 231 233 234 236 237 237 236 235 236 238 243 247 247 248 249 251 254 255 257 260 263 265 264 265 268 270 268 264 261 261 262 264 265 265 262 260 261 262 263 262 260 262 266 270 272 269 264 266 273 279 282 286 294 296 290 286 286 287 284 284 294 304 308 310 313 314 310 310 312 311 312 313 313 316 318 318 321 321 319
226 225 225 226 227 228 230 232 234 236 238 239 237 236 236 237 240 245 248 249 251 255 258 258 257 258 261 265 266 264 265 266 266 264 262 262 264 266 267 268 267 265 264 266 268 268 267 266 267 271 275 273 270 270 272 277 280 281 284 289 289 286 288 291 291 291 291 295 302 307 310 309 307 309 311 310 310 310 310 313 316 317 320 322 321
227 228 228 228 227 228 230 231 233 236 239 241 240 238 237 237 239 242 246 250 253 257 260 261 262 260 259 261 263 263 263 264 266 265 265 264 265 267 268 269 270 270 270 271 272 272 272 271 272 274 276 275 274 276 279 282 284 282 280 281 283 284 286 289 293 294 290 290 297 305 308 308 308 310 314 314 314 315 315 316 318 320 324 327 327
227 228 229 229 229 230 231 231 232 235 239 243 245 244 243 242 242 243 246 250 253 257 261 264 266 266 264 263 264 265 266 267 268 268 268 267 266 267 268 269 270 271 272 273 274 275 274 274 277 278 277 277 277 278 282 286 289 287 282 280 281 284 286 287 290 292 290 290 293 298 304 307 308 310 314 315 315 315 317 320 323 325 328 330 332
221 224 227 228 230 231 231 231 232 234 238 242 246 249 250 250 249 249 249 250 252 255 259 263 266 268 269 269 269 270 270 270 271 271 270 269 268 267 268 268 269 269 269 271 272 274 275 276 277 278 278 279 280 281 283 285 287 287 285 285 286 289 290 291 291 291 290 290 291 294 298 303 305 306 310 311 310 310 312 315 320 323 325 327 328
208 211 224 232 234 233 230 227 227 227 230 233 238 245 250 252 253 253 253 253 253 254 258 262 265 268 273 275 275 274 273 271 271 271 271 272 270 269 269 269 270 269 268 268 270 272 274 276 277 278 278 279 281 283 284 285 286 286 286 288 290 293 295 296 296 294 292 291 291 294 296 298 302 304 307 309 307 308 311 307 306 312 317 320 321
207 200 221 238 238 238 236 231 230 227 225 225 225 232 243 250 251 251 252 254 255 257 261 265 269 273 277 280 279 277 274 272 271 271 271 272 271 271 270 270 270 271 270 270 271 272 273 274 275 277 278 280 282 283 283 283 284 285 287 289 290 293 295 296 296 296 295 293 293 295 296 296 299 302 304 307 308 308 309 303 299 306 310 311 314
196 188 224 243 244 246 245 237 239 238 233 231 229 227 232 248 253 248 246 249 251 253 256 259 265 273 279 282 282 280 278 276 274 273 272 272 272 271 271 270 270 270 272 273 274 275 275 275 276 278 278 279 280 281 281 282 281 281 284 287 288 290 291 291 292 293 292 291 292 294 293 291 297 300 299 305 308 306 305 302 300 305 307 306 310
104 119 169 237 248 252 250 240 247 249 242 239 238 234 237 254 262 253 242 240 242 243 246 247 251 259 271 278 281 280 279 278 277 277 275 273 272 271 271 271 271 270 270 271 273 276 277 279 280 281 281 281 281 281 282 281 281 280 280 281 282 284 285 285 287 288 286 284 287 289 286 285 294 300 300 303 306 304 304 304 300 300 301 298 300
91 92 91 87 110 202 215 208 216 229 231 234 240 247 254 261 262 255 245 238 235 233 235 238 241 247 257 270 278 280 280 279 279 279 278 276 273 271 270 271 271 271 272 272 274 276 277 279 281 282 283 284 284 284 284 284 284 283 283 282 281 279 279 278 279 281 281 279 281 283 282 282 288 295 298 300 302 303 302 302 299 295 293 289 285
90 89 85 83 86 90 100 114 120 128 150 181 206 225 241 250 252 251 247 242 238 236 234 234 240 251 256 266 278 284 285 284 282 280 279 278 276 272 270 270 270 271 273 274 275 276 277 278 280 282 285 286 286 286 286 288 289 289 288 288 286 284 281 278 276 276 277 276 274 277 281 282 282 290 298 298 297 297 297 297 298 295 291 288 287
87 87 86 86 85 86 90 93 92 89 88 90 102 119 151 218 235 241 245 247 245 243 242 241 245 255 260 265 273 279 286 295 295 289 282 278 277 274 271 270 269 269 271 273 274 276 278 278 280 282 286 287 287 287 288 289 291 293 293 292 292 293 291 288 285 281 278 276 272 274 281 283 282 290 299 299 293 292 293 293 295 295 292 291 291
76 76 77 77 77 79 82 86 87 85 82 82 86 89 91 102 177 220 236 251 255 254 253 250 249 251 255 263 271 274 275 282 299 305 296 284 278 276 273 270 269 270 270 272 273 274 276 278 279 281 285 286 288 288 289 291 293 294 295 295 296 298 297 297 296 293 289 285 280 280 284 288 289 293 298 299 295 295 295 293 292 292 292 291 290
71 71 70 68 70 72 72 73 75 77 78 82 89 92 91 84 77 78 92 159 270 282 283 275 269 266 266 271 279 285 283 278 281 294 297 287 276 273 274 273 274 276 276 277 277 277 278 278 278 280 283 285 288 289 290 292 293 293 295 296 297 299 299 299 300 299 296 294 291 290 291 293 295 296 297 298 296 297 296 291 291 292 289 287 287
69 67 65 64 64 65 67 66 66 70 78 84 89 98 104 96 84 75 77 82 72 25 341 321 318 324 333 317 287 297 334 330 266 268 275 278 275 271 270 272 275 278 282 285 286 285 284 283 282 282 283 285 289 291 292 292 292 291 293 294 296 297 295 294 295 296 297 296 296 294 294 295 296 296 297 297 295 296 291 285 289 292 286 280 281
71 67 64 64 63 62 63 63 64 68 73 74 74 83 93 90 82 77 78 77 71 59 50 43 36 33 32 22 360 15 49 65 228 262 269 271 274 273 270 271 272 276 280 284 286 287 287 288 289 288 288 290 293 294 293 291 289 289 290 291 292 291 287 286 290 292 294 296 297 295 294 295 295 294 295 294 293 292 285 283 289 288 278 271 272
69 69 67 66 65 62 60 59 60 63 64 65 68 75 82 81 77 75 75 73 67 58 49 46 46 48 43 32 23 28 35 28 351 0 348 299 282 275 269 269 270 273 278 280 280 281 282 285 290 292 292 294 293 290 287 284 282 283 285 287 286 285 285 289 294 295 295 295 296 295 294 294 294 293 292 291 290 288 285 286 288 282 273 270 271
69 71 72 71 69 64 59 57 57 57 58 60 65 73 80 80 76 72 69 69 67 60 51 48 52 57 56 50 44 34 14 339 326 349 359 350 344 319 281 277 277 279 284 285 284 284 283 285 291 293 291 289 286 284 283 280 278 279 282 284 284 286 291 294 294 293 292 292 292 291 292 292 291 290 290 290 290 289 288 289 287 282 276 271 269
66 69 69 69 68 63 60 59 57 56 56 58 63 69 74 74 71 66 64 65 68 67 64 63 65 67 67 65 61 53 37 11 350 345 339 336 345 352 350 353 347 327 314 304 298 294 291 291 293 294 293 291 289 288 285 284 282 280 281 284 286 290 293 293 292 291 289 288 288 288 288 288 288 287 287 287 288 288 287 287 288 286 281 273 269
59 62 63 64 63 61 59 59 60 59 55 56 62 64 64 64 63 61 60 61 64 65 64 63 65 65 63 62 59 54 53 47 34 32 24 359 355 355 346 348 354 352 345 335 325 315 305 299 295 294 294 293 291 289 286 284 283 282 285 288 290 290 290 289 290 292 290 290 291 290 288 287 286 286 287 287 289 290 290 290 291 291 287 282 277
49 53 56 57 59 60 59 57 59 59 56 53 57 59 55 51 50 49 50 51 54 56 55 53 55 55 53 50 46 44 49 52 42 35 33 25 20 16 357 345 348 348 344 340 335 329 318 309 303 299 299 298 295 292 288 285 283 285 290 295 298 298 296 294 294 293 291 291 290 289 288 289 289 290 291 293 295 296 296 295 293 292 289 287 285
45 47 48 50 54 57 59 59 60 62 59 51 48 49 45 41 42 42 42 45 50 53 52 48 46 45 41 39 39 40 44 45 37 30 29 28 26 27 24 15 5 358 353 349 345 337 327 319 313 306 303 302 301 299 297 296 295 295 298 302 304 306 307 306 305 301 295 290 286 284 285 287 289 291 293 295 297 297 296 295 293 291 289 288 286
43 44 43 43 46 49 54 59 61 66 70 60 47 41 37 36 40 42 42 47 53 53 48 43 39 37 35 34 35 37 37 34 30 26 24 23 24 26 27 26 24 19 12 6 2 354 343 331 322 314 307 302 298 296 298 303 306 307 307 307 306 307 308 309 308 304 294 288 284 282 285 290 292 293 294 295 295 295 295 294 294 293 291 288 286
43 44 41 38 38 40 45 51 53 60 75 78 60 46 42 42 43 42 45 53 56 52 46 39 34 31 31 32 35 38 37 33 29 24 21 20 21 22 23 24 24 19 14 10 5 358 351 346 341 336 329 326 324 324 325 326 325 322 320 316 312 311 311 309 308 304 297 291 287 287 292 299 301 299 297 295 294 294 294 293 293 292 292 291 289
50 46 42 35 30 30 33 37 41 47 59 77 79 66 63 62 53 48 53 56 53 48 44 38 34 32 31 32 38 45 46 42 36 31 27 26 26 26 26 25 21 17 16 14 10 4 2 5 8 8 8 10 11 8 4 360 354 347 342 338 332 327 323 318 313 308 304 301 299 298 301 304 304 303 303 300 298 298 298 293 290 290 292 292 289
62 52 44 35 26 23 24 25 29 35 43 58 80 77 68 63 56 53 56 54 47 43 40 37 38 39 36 37 46 53 53 48 43 39 35 34 33 32 29 26 21 18 18 16 14 14 15 16 18 17 17 17 16 12 9 5 1 356 352 350 345 340 336 330 322 316 315 313 309 307 307 306 305 305 306 303 302 304 303 295 290 289 291 292 287
65 57 50 43 36 28 22 19 22 30 33 43 65 73 65 57 51 47 49 46 39 34 33 36 42 44 44 50 58 59 55 47 40 36 32 30 30 28 25 24 22 20 18 16 16 21 25 25 22 19 16 13 9 5 0 356 353 350 347 347 347 345 343 338 330 324 323 319 311 306 305 305 304 305 305 301 301 304 304 297 291 290 291 288 282
62 60 56 52 48 41 35 32 33 37 37 38 50 62 62 54 43 36 38 37 31 29 33 42 47 45 49 60 65 60 52 41 33 29 27 25 24 22 19 17 16 16 15 13 16 23 27 27 24 19 15 11 5 0 356 352 350 346 342 343 346 346 345 345 341 336 333 330 322 313 307 303 300 299 299 297 299 303 303 299 295 291 290 285 279
57 59 57 54 52 50 51 52 51 52 54 54 52 51 49 43 31 25 27 24 20 26 38 48 50 49 52 61 61 50 40 31 25 23 22 23 23 20 15 11 8 8 5 4 12 21 24 23 20 15 11 8 4 359 355 352 349 345 342 342 343 344 344 343 340 338 337 337 333 327 322 316 308 302 299 296 296 298 300 300 297 291 287 284 279
57 62 59 55 54 55 54 53 51 51 51 53 53 46 35 24 6 353 353 356 2 17 34 44 49 49 51 55 50 34 25 23 22 20 17 17 18 17 13 9 8 7 3 3 13 22 21 19 17 11 6 4 0 356 354 351 346 344 342 340 339 339 339 336 335 336 336 333 330 330 330 328 322 318 314 309 303 298 294 294 294 290 285 283 280
61 68 64 60 60 59 55 51 50 47 43 42 42 37 30 25 15 352 328 320 324 343 21 40 42 42 45 51 43 24 16 16 19 18 15 12 12 11 9 7 8 9 9 13 22 25 21 17 14 9 5 2 357 354 352 349 344 342 339 336 333 332 331 330 331 334 333 330 329 330 329 327 326 325 324 322 317 309 298 292 290 287 282 279 279
80 81 73 68 67 63 58 52 48 46 44 42 38 35 35 35 33 28 15 356 336 328 353 22 30 32 39 44 31 15 10 8 8 10 11 10 8 7 6 6 10 12 14 19 23 22 17 14 11 7 4 0 356 351 348 344 342 339 336 332 329 327 327 328 330 332 331 330 330 330 329 328 328 327 325 325 325 321 313 305 300 292 283 277 276
97 93 79 67 61 58 53 48 45 41 38 36 34 32 31 32 34 36 36 31 22 3 354 1 10 18 24 22 9 2 1 359 358 359 2 2 2 2 1 5 13 17 18 19 19 16 12 10 7 4 2 357 353 349 343 338 337 334 331 330 327 326 327 327 328 329 330 329 329 328 328 328 327 327 326 324 322 321 320 319 316 308 298 292 285
84 81 67 54 48 42 34 35 39 38 36 36 34 27 24 25 26 25 26 29 30 17 1 354 352 354 359 3 359 354 351 350 351 352 354 354 353 354 358 2 8 11 11 13 13 11 8 6 2 0 358 354 351 347 340 334 330 328 325 325 324 324 325 325 325 326 326 326 326 326 327 328 326 326 327 324 321 319 319 318 318 317 313 309 302
64 48 34 26 19 9 4 9 19 26 33 41 36 24 20 20 16 13 15 15 10 2 358 354 348 345 346 351 353 350 346 345 345 345 346 348 347 348 351 353 353 354 355 358 358 358 357 357 356 355 353 350 347 344 339 333 330 327 323 321 320 319 319 320 322 323 323 323 323 324 325 325 324 325 325 322 319 319 318 317 317 317 316 315 313
31 12 8 0 349 344 343 346 353 1 9 16 16 15 17 14 4 0 2 1 355 350 349 349 348 345 342 344 346 344 341 341 342 341 341 343 343 342 339 337 336 337 339 342 343 342 342 344 346 346 346 344 343 340 337 333 330 326 322 318 316 315 316 318 320 322 321 320 320 321 321 322 323 324 323 319 317 317 317 316 316 316 314 312 310
334 335 331 327 327 336 345 351 351 349 347 348 351 356 359 355 351 348 347 348 346 342 338 337 338 338 339 341 342 340 338 339 340 339 336 333 333 334 331 326 325 326 326 328 330 329 331 334 336 337 338 338 337 336 334 331 328 325 321 317 314 314 315 317 318 320 321 320 318 317 318 318 320 321 318 315 314 314 314 314 314 313 312 309 305
303 311 311 309 317 333 346 350 346 343 340 336 334 338 343 344 340 337 337 338 336 332 330 330 330 332 337 340 338 336 337 338 337 333 328 323 323 328 328 325 324 324 322 323 324 324 326 328 329 330 331 331 331 331 330 329 327 324 320 316 313 312 312 314 315 316 317 317 317 316 315 314 315 316 314 311 310 310 310 312 312 310 309 306 304
285 288 287 296 317 333 343 346 343 341 339 333 329 332 338 337 330 329 330 329 327 326 326 327 330 335 339 340 338 339 340 338 335 332 329 323 322 323 324 323 322 320 319 320 322 322 323 324 326 327 328 328 329 329 328 328 327 323 317 313 310 309 308 309 310 311 313 314 314 314 313 312 313 313 310 308 308 307 306 308 311 312 310 306 303
268 275 282 294 311 323 331 337 339 338 339 339 340 344 342 331 328 330 331 331 330 326 323 325 329 334 337 339 341 342 339 334 331 330 327 323 323 323 324 324 323 320 317 317 317 317 317 319 322 324 325 326 327 327 326 325 323 319 315 311 309 307 307 307 307 308 309 310 310 310 310 310 309 308 308 308 307 306 304 305 310 314 313 308 304
269 286 300 308 313 316 320 323 327 332 338 343 343 341 336 332 336 340 340 338 333 327 322 324 328 330 332 336 340 339 334 331 330 327 322 319 321 322 323 324 324 322 319 315 312 311 312 314 317 320 320 321 322 322 321 321 319 315 311 308 306 305 305 304 305 306 308 308 308 307 306 305 304 303 304 304 303 303 302 302 305 309 309 308 305
294 304 311 313 313 314 316 318 323 331 337 342 345 346 339 336 344 354 354 347 338 330 325 328 331 331 329 330 334 334 332 331 332 330 325 322 321 321 322 323 322 320 319 315 312 312 312 312 313 315 316 316 317 317 315 315 314 311 308 305 304 303 302 301 301 303 305 305 305 304 303 302 300 299 299 298 298 298 298 298 300 301 302 304 304
317 321 321 321 322 326 331 337 342 344 351 4 15 15 1 349 351 354 347 339 337 334 328 328 331 329 325 326 329 330 328 328 331 332 330 326 324 323 323 324 322 322 322 321 319 318 318 316 314 313 312 312 313 313 312 311 309 307 304 302 301 301 300 300 301 301 301 301 301 300 300 299 297 295 295 295 295 294 293 293 294 295 295 297 299
341 343 345 343 349 2 11 15 18 19 20 22 18 10 3 356 351 343 332 327 329 326 319 319 323 322 320 322 325 324 323 325 330 333 332 328 326 326 327 328 328 326 325 325 326 326 325 324 321 318 315 312 309 308 308 307 305 303 301 300 299 299 301 302 303 302 300 298 297 296 296 296 295 295 294 294 294 293 291 289 289 290 291 291 292
338 349 13 22 29 36 34 32 28 23 22 20 10 0 354 345 334 326 322 323 326 324 320 323 326 325 323 325 326 325 326 328 329 332 331 326 325 327 329 330 330 328 326 328 331 331 330 329 327 325 322 319 316 312 309 306 303 301 300 301 301 301 302 303 302 300 299 298 297 297 296 295 294 295 295 295 295 295 294 291 288 288 289 288 287
317 338 12 31 47 49 40 32 26 19 14 9 360 352 344 335 329 329 331 331 331 331 329 329 328 327 326 327 326 325 324 322 321 323 323 321 321 324 326 326 327 326 326 328 331 331 330 329 327 326 325 323 321 320 317 313 309 306 305 304 304 304 303 302 301 300 300 300 300 299 296 294 292 291 291 292 294 296 297 295 293 292 291 289 286
329 21 36 50 58 47 32 23 18 12 4 358 353 348 343 338 338 340 338 332 329 329 328 326 327 328 327 326 323 322 320 319 319 320 320 319 322 325 325 324 325 325 325 326 327 327 327 326 325 324 324 324 323 323 322 319 316 315 313 312 311 311 309 307 306 305 306 305 303 301 296 292 289 288 288 290 292 295 295 295 295 294 293 289 286
84 83 72 76 72 48 22 7 1 359 358 360 359 353 347 345 342 339 334 329 326 327 328 328 330 331 328 324 322 322 322 321 321 322 323 324 327 328 327 327 327 326 324 323 322 323 324 325 325 324 323 323 324 324 323 321 320 319 319 319 319 318 317 315 312 311 310 309 306 302 298 293 290 288 288 289 290 292 293 294 294 292 289 286 284
88 77 69 67 39 6 354 353 358 1 6 10 3 351 344 342 340 337 334 330 327 327 329 329 330 330 327 325 323 324 324 323 323 324 326 327 329 330 331 330 329 327 324 320 319 320 322 323 324 323 322 322 323 323 323 323 323 322 321 322 323 322 320 317 314 313 312 310 307 303 299 295 291 288 287 288 289 291 292 293 292 290 287 285 282
Height
843 845 847 849 851 852 854 855 857 859 860 861 862 863 865 866 867 869 870 871 872 873 874 875 876 878 879 880 881 882 883 884 884 885 885 885 886 886 886 886 886 886 886 886 885 886 885 885 886 886 886 886 886 886 886 886 886 885 885 885 885 885 884 884 883 882 881 881 881 880 879 879 878 877 877 876 876 875 874 874 873 871 870 869 868
843 845 846 848 849 850 852 854 855 857 858 859 861 862 864 865 866 868 869 870 871 872 873 873 875 876 877 878 880 880 881 882 883 884 884 884 885 885 885 885 885 885 885 884 884 885 884 884 884 884 885 885 884 885 885 885 885 885 885 884 884 884 883 883 882 881 880 880 879 879 878 878 877 876 876 875 874 873 872 872 871 870 869 868 866
843 844 845 846 848 849 852 853 855 856 857 858 860 861 862 864 865 867 868 869 870 871 872 872 873 875 876 877 878 879 880 881 882 882 883 883 883 884 884 884 884 884 883 883 883 884 884 883 883 883 884 883 883 884 884 884 884 884 883 883 883 883 882 882 881 881 879 879 878 878 877 877 876 875 875 874 873 872 871 870 869 868 867 866 865
842 843 844 845 847 848 850 852 854 855 856 858 859 860 861 863 864 865 866 868 869 870 871 871 872 873 874 875 876 877 878 879 880 881 881 882 882 882 883 883 883 882 882 882 882 883 882 882 882 883 883 882 882 883 883 883 883 882 882 882 882 881 881 881 880 880 879 878 877 877 876 876 875 874 874 873 872 871 870 869 868 867 866 865 864
840 841 842 844 845 847 848 850 852 853 855 856 858 859 860 861 863 864 865 866 867 868 869 870 871 871 872 873 874 875 876 877 878 879 879 880 880 880 881 881 881 881 881 881 881 881 881 881 881 881 882 881 881 881 882 882 881 881 881 880 880 880 880 879 879 879 878 877 876 876 875 875 874 873 873 872 871 870 869 868 867 866 865 864 862
839 840 841 843 844 846 847 849 851 852 854 855 857 858 860 861 861 862 863 864 865 866 867 868 869 869 870 871 872 873 874 875 876 876 877 878 878 879 879 879 879 879 879 879 879 880 879 879 880 880 880 880 880 880 880 880 880 880 879 879 879 879 878 878 878 877 877 876 875 874 874 873 872 871 871 871 870 869 867 866 865 865 864 862 861
839 840 842 842 844 845 847 848 850 851 853 855 856 858 859 860 860 861 861 862 863 864 865 866 867 867 868 869 870 871 872 873 874 874 875 876 876 877 877 877 877 877 877 877 877 878 878 878 878 878 878 878 878 879 879 879 879 879 878 878 878 878 877 877 877 876 875 875 874 873 872 872 871 870 869 869 868 867 867 865 864 863 862 861 860
839 841 843 844 845 845 847 848 850 851 852 853 854 856 857 859 859 860 860 860 861 861 862 863 864 865 866 867 867 869 870 870 871 872 873 874 874 875 875 875 875 875 875 875 876 876 876 876 876 877 877 877 877 877 877 877 877 877 877 877 877 876 876 876 875 875 874 874 873 872 871 870 869 868 867 867 866 865 865 865 863 861 860 860 858
839 841 843 844 845 845 846 848 850 850 849 849 850 852 855 857 858 858 859 859 859 860 860 861 862 863 864 865 865 866 867 868 869 870 871 872 872 873 873 873 873 874 874 874 874 874 874 874 874 874 875 875 875 875 875 876 876 875 875 875 875 875 874 874 874 873 873 873 872 871 870 869 868 867 866 865 865 864 863 863 861 859 858 857 856
838 840 842 842 842 844 845 848 850 849 848 847 847 849 851 854 857 858 857 858 858 858 859 859 860 861 862 863 864 864 865 866 867 868 869 870 870 871 871 871 872 872 872 872 872 872 872 872 872 872 872 873 873 873 873 874 874 873 873 873 873 873 873 872 872 872 872 871 870 870 869 868 866 866 865 864 863 862 861 861 859 858 857 856 854
838 840 841 840 840 843 844 846 847 847 847 847 847 848 849 852 857 858 856 856 856 856 856 857 857 858 860 861 862 862 863 863 864 866 866 867 868 869 869 869 869 870 870 870 870 869 869 870 870 870 870 870 870 870 871 871 871 871 871 871 871 871 871 870 870 869 869 869 868 868 867 866 864 864 863 862 861 860 860 859 858 857 856 855 853
836 838 839 839 839 841 843 844 845 846 846 846 846 847 847 850 855 857 855 854 854 854 854 854 855 855 856 858 859 860 861 862 862 864 864 865 866 867 867 867 867 867 867 867 867 867 867 867 867 867 867 867 868 868 868 868 868 868 869 869 869 869 869 868 868 867 867 866 866 865 865 864 862 862 861 860 859 858 858 857 856 855 854 854 852
838 839 840 841 841 842 843 844 845 846 845 844 845 845 845 848 853 855 853 852 852 852 852 852 852 853 854 855 856 857 859 860 861 862 863 863 864 864 865 865 865 865 865 865 865 865 865 865 865 865 865 865 865 865 865 865 865 865 866 866 866 866 866 866 865 865 865 864 863 862 861 861 860 859 859 858 857 856 855 854 854 853 852 851 850
841 841 842 842 842 843 843 844 844 845 845 844 844 844 846 849 852 853 851 850 850 850 850 850 850 851 851 852 853 854 856 858 860 861 862 862 862 862 862 862 862 862 862 863 863 863 863 863 862 862 862 862 863 863 863 863 863 863 863 862 862 862 862 862 862 862 862 862 861 859 859 858 857 856 856 856 855 854 853 852 852 851 850 848 847
842 843 843 843 843 843 843 843 843 844 844 845 845 846 848 851 852 851 850 849 849 848 848 848 848 848 848 849 851 852 854 856 858 861 862 861 860 860 859 859 859 859 860 860 860 860 860 861 860 860 860 860 860 860 861 861 861 860 860 859 858 858 858 858 858 858 858 858 857 856 856 855 855 854 853 853 852 851 851 850 849 849 847 845 844
843 844 845 845 845 844 844 844 843 842 844 846 847 848 850 852 851 850 849 848 848 847 847 847 847 846 846 847 848 851 853 854 856 860 862 861 859 858 858 857 857 857 857 857 858 858 858 858 858 858 857 857 857 858 859 859 858 857 856 856 855 854 854 854 854 854 854 853 853 852 852 852 852 851 851 851 850 849 848 847 847 846 844 842 841
844 845 845 846 846 844 844 845 844 845 847 849 849 849 850 850 850 849 849 848 847 847 847 847 847 846 846 846 847 850 853 855 856 859 861 860 858 857 856 855 855 854 854 855 855 855 856 856 855 855 855 854 855 856 856 856 856 855 854 853 852 851 850 850 850 850 850 849 849 849 848 848 848 848 848 848 848 847 846 845 844 844 842 840 838
846 846 846 847 847 847 846 847 847 848 849 849 849 848 848 848 848 848 848 847 846 845 844 844 844 844 844 846 848 852 854 856 857 858 858 857 857 856 855 854 853 852 852 852 852 853 853 853 853 853 852 852 852 853 854 853 852 852 851 850 849 848 847 847 847 847 846 846 845 845 845 845 844 844 844 845 845 845 843 842 841 841 840 838 836
849 849 849 850 850 850 849 849 849 849 848 848 848 847 847 847 847 847 846 845 844 844 844 843 842 843 845 848 852 855 856 857 858 858 857 856 855 854 853 852 851 850 850 850 850 850 850 850 850 850 850 850 850 850 850 850 849 849 848 848 847 845 845 845 845 844 843 842 842 841 841 841 841 840 840 841 841 841 840 838 838 838 836 835 834
851 851 852 851 851 852 851 850 849 848 847 847 847 847 847 847 846 846 846 845 844 844 846 847 847 847 849 852 855 857 858 857 857 857 857 856 854 853 852 851 850 849 848 848 848 848 848 848 848 848 847 847 847 847 847 847 846 846 846 845 844 843 843 843 843 842 841 839 838 838 837 837 837 836 836 836 836 836 836 835 834 834 833 831 831
852 852 852 852 852 852 852 851 850 849 849 848 847 847 847 848 848 848 848 848 848 849 851 853 852 852 852 854 856 858 859 858 857 857 857 856 854 853 852 851 849 848 847 847 846 846 846 846 846 846 845 845 845 844 844 844 844 843 843 843 842 842 841 840 839 839 838 837 835 835 834 833 833 832 832 832 831 831 831 830 829 829 829 828 827
853 853 853 853 853 852 852 852 852 852 851 851 850 850 850 850 851 851 851 852 852 853 855 855 854 853 853 854 856 858 860 860 859 857 856 855 853 852 851 850 849 848 847 846 845 845 844 844 844 843 843 843 843 842 842 842 841 841 841 840 840 839 839 837 837 836 835 834 833 832 831 830 829 829 828 828 827 827 827 826 826 825 824 823 823
853 853 853 853 853 853 853 853 853 853 853 853 852 852 852 853 853 853 853 853 853 854 854 853 853 853 854 855 857 859 860 859 858 857 855 854 852 851 849 848 847 846 846 845 844 844 843 843 842 842 841 841 840 840 840 839 839 838 838 838 837 837 836 835 834 833 832 831 830 829 828 827 827 826 825 824 824 824 823 822 822 821 820 819 818
852 853 853 853 854 854 854 853 853 853 853 853 854 854 854 854 854 854 854 854 854 854 854 854 855 855 856 858 858 859 859 858 857 856 854 853 851 849 848 847 845 845 844 844 843 843 842 841 841 840 839 839 838 838 837 837 837 836 836 835 835 834 834 833 831 830 829 828 827 826 825 824 824 823 821 821 821 820 819 818 818 817 816 815 814
851 851 852 852 853 853 854 854 854 854 854 854 854 854 854 854 854 855 855 855 855 855 856 856 856 857 857 858 858 857 857 856 855 854 853 852 850 848 847 846 845 844 844 843 843 842 841 840 839 838 837 837 836 835 835 835 834 834 834 833 832 832 831 830 829 827 826 825 824 823 822 821 820 820 818 818 817 816 815 814 813 812 812 811 809
851 851 851 851 852 852 853 853 854 854 855 855 855 855 855 855 855 855 855 855 856 856 857 857 857 857 857 857 857 856 855 854 853 852 851 850 849 848 847 845 845 844 843 843 842 841 840 839 838 837 836 835 834 833 833 832 832 832 831 831 830 829 828 827 826 825 823 822 821 820 818 818 817 816 815 815 813 812 812 811 809 808 808 808 806
852 852 852 852 852 852 852 853 853 854 854 855 855 856 856 856 856 856 856 856 857 857 858 858 858 857 857 857 856 856 855 854 852 851 850 849 848 847 846 845 844 844 843 842 841 840 839 838 837 836 835 834 833 832 832 831 831 830 829 829 828 827 826 825 824 823 821 820 819 817 816 815 814 813 812 811 810 809 808 808 806 805 804 805 803
852 852 852 852 852 852 852 852 853 853 853 854 854 855 856 856 856 856 857 857 857 858 858 858 857 857 857 856 856 855 854 853 852 851 850 849 848 847 846 845 845 844 843 842 841 840 839 838 837 836 835 834 833 832 832 831 831 830 829 828 826 825 824 823 822 821 820 818 817 816 814 813 812 811 810 808 806 805 805 804 803 802 801 801 800
852 852 852 852 852 852 852 852 852 852 853 853 854 855 855 856 856 856 857 857 857 857 857 857 857 857 856 856 856 855 854 854 853 852 851 849 848 847 846 845 845 844 843 843 841 840 839 839 838 837 836 835 834 833 832 832 831 830 828 827 825 824 823 822 821 819 818 817 815 814 813 812 810 809 808 806 804 803 802 801 800 799 798 798 796
852 852 852 853 853 853 853 853 853 853 853 853 854 854 855 855 856 856 856 857 857 857 857 856 856 856 856 855 855 855 854 854 853 852 851 850 849 848 847 846 845 844 844 843 841 840 839 839 838 838 837 836 835 834 833 832 831 829 828 826 825 823 822 821 820 819 817 816 814 813 811 810 809 807 806 804 802 800 800 799 798 797 796 794 793
852 852 852 853 853 853 853 853 853 853 853 853 854 854 854 855 855 855 856 856 856 856 856 855 855 855 855 855 855 854 854 854 853 852 852 850 849 848 847 846 845 844 843 842 841 840 839 839 838 837 837 836 835 834 833 832 830 829 827 825 824 823 822 821 819 818 816 815 813 811 810 808 807 805 804 802 800 798 797 796 795 794 793 792 790
852 852 852 853 853 853 853 853 853 853 853 853 854 854 854 854 855 855 855 855 855 855 855 854 854 854 854 854 854 854 854 853 852 852 851 850 849 848 847 846 845 844 843 841 840 840 839 839 838 837 836 836 835 834 833 831 830 829 827 825 824 823 822 821 819 818 816 814 812 810 808 807 806 804 802 800 798 796 794 793 792 791 790 789 788
851 851 852 852 852 853 853 853 853 853 853 853 854 854 854 854 854 854 854 854 854 854 854 854 854 853 853 853 853 853 853 852 851 851 850 850 849 847 846 845 844 843 842 841 840 840 839 839 838 837 836 836 835 833 832 831 830 829 828 826 824 823 822 820 819 817 816 814 812 810 808 806 804 802 800 798 796 794 792 790 789 788 787 785 784
851 851 851 852 852 852 852 853 853 853 853 853 853 853 854 854 854 854 854 853 854 853 853 853 853 853 853 853 852 852 851 851 850 850 849 848 848 847 846 845 844 842 841 840 840 839 839 838 838 837 836 836 835 834 833 831 830 829 827 826 825 823 821 820 818 816 815 813 811 809 807 806 804 801 799 797 795 793 791 788 787 785 783 782 780
851 851 851 851 852 852 852 853 853 853 853 853 853 853 853 853 853 854 853 853 853 853 853 852 852 852 852 852 851 851 850 850 849 848 848 847 846 846 845 844 843 842 841 840 840 839 839 838 837 836 836 835 834 833 832 831 830 829 827 825 824 822 820 819 817 815 814 812 810 809 807 805 803 801 799 796 794 792 789 787 786 784 782 780 778
850 851 851 851 852 852 852 852 852 852 853 853 853 853 853 853 853 853 853 853 854 853 853 852 852 851 851 851 850 850 849 848 848 847 846 846 845 844 844 843 842 841 840 840 839 839 838 837 837 836 835 834 833 832 831 830 829 827 826 824 823 821 819 818 816 814 813 811 809 807 806 804 803 801 799 796 794 791 789 786 785 783 781 779 776
850 850 850 851 851 851 852 852 852 852 852 852 852 852 852 853 853 853 853 853 853 853 853 852 851 851 850 850 849 849 848 847 847 846 845 845 844 843 842 842 841 840 840 839 838 838 837 836 836 835 834 833 832 830 829 828 827 825 824 823 821 820 818 817 815 813 812 810 808 807 805 803 802 800 799 796 793 791 789 787 785 782 779 777 775
849 849 849 850 850 850 851 851 851 851 851 851 851 851 852 852 852 852 852 852 852 852 852 851 851 850 849 849 848 847 847 846 845 845 844 843 843 842 841 841 840 839 839 838 837 836 836 835 834 833 832 831 830 829 827 826 825 823 822 821 819 818 817 815 813 812 811 809 807 806 804 802 801 799 798 796 793 791 789 787 785 782 778 776 773
848 848 848 848 848 849 849 849 849 850 850 850 850 850 850 851 851 851 851 851 851 851 850 850 850 849 848 848 847 846 846 845 844 843 843 842 841 840 840 839 839 838 837 837 836 835 834 834 833 832 831 829 828 827 825 824 822 821 820 818 817 816 814 813 811 810 809 807 806 804 803 801 799 798 796 794 792 790 788 786 784 782 779 775 772
847 847 847 847 847 848 848 848 848 848 848 848 848 848 848 848 849 849 849 849 849 849 849 849 848 848 847 847 846 845 845 844 843 842 841 840 840 839 838 838 837 836 836 835 834 834 833 832 831 830 829 827 826 825 823 822 820 819 817 816 815 813 812 811 809 808 806 805 803 802 801 799 797 795 794 792 790 788 786 784 782 780 778 775 772
846 846 846 846 846 846 846 847 847 847 847 847 847 846 847 847 847 847 847 847 847 847 847 847 847 846 846 845 845 844 844 843 842 841 840 839 839 838 837 836 836 835 834 833 833 832 831 830 829 828 826 825 824 823 821 820 818 816 815 814 812 811 810 808 807 806 804 803 801 800 798 797 795 793 791 789 787 785 783 781 779 777 775 773 771
845 845 845 845 845 845 845 845 845 845 846 845 845 845 845 845 846 846 846 846 846 846 845 845 845 844 844 844 843 843 842 841 840 839 839 838 837 836 836 835 834 833 833 832 831 830 829 828 827 826 825 823 822 820 819 818 816 815 813 812 810 809 807 806 805 803 802 800 799 797 796 794 792 790 788 786 784 782 780 778 775 773 771 770 768
844 843 844 844 844 843 844 844 843 844 844 844 844 844 844 844 845 845 845 845 845 845 844 844 843 843 842 842 841 841 840 839 839 838 837 837 836 835 834 833 832 831 831 830 829 829 827 826 825 824 823 821 820 819 817 816 814 813 811 810 808 807 805 804 802 801 799 798 796 794 793 791 789 787 785 783 781 779 777 775 772 770 768 766 764
843 842 842 842 842 842 842 842 842 842 842 842 842 842 843 843 844 844 844 844 844 843 843 843 842 842 841 840 840 839 838 837 837 836 835 835 834 833 832 832 830 830 829 828 827 826 825 824 823 821 820 819 817 816 815 813 812 811 809 808 806 804 803 801 800 799 797 795 793 791 789 787 785 783 782 780 778 776 774 772 769 767 764 762 760
842 842 841 841 840 840 840 840 841 841 841 841 841 841 842 842 842 842 843 843 843 842 842 842 841 841 840 839 838 838 837 836 835 834 834 833 832 831 831 829 828 827 826 825 824 824 822 821 820 818 817 815 814 813 812 810 809 808 807 805 804 802 800 799 797 796 794 792 790 787 786 784 782 780 778 776 774 772 770 768 766 764 761 759 756
841 841 840 840 840 840 839 840 840 840 840 840 840 841 841 841 841 841 841 841 841 841 841 840 840 840 839 838 837 836 836 835 834 833 832 832 831 830 828 827 826 825 824 822 822 820 819 818 816 815 813 812 810 809 808 807 806 805 803 802 801 799 797 796 794 792 791 789 787 784 782 779 777 775 773 771 770 768 766 764 762 760 758 756 753
841 840 840 840 839 839 839 839 840 840 840 840 840 840 840 840 840 840 840 839 839 839 838 838 838 837 837 836 835 835 834 833 832 831 831 830 829 828 826 825 823 822 821 820 818 817 816 814 813 811 810 808 807 805 804 803 802 801 799 798 797 795 794 792 791 788 787 785 783 780 778 775 772 770 768 766 765 763 761 759 758 756 754 752 749
840 840 840 839 839 839 839 839 839 839 840 840 840 840 840 839 839 839 838 838 837 837 836 836 836 835 834 834 833 832 832 831 830 829 828 827 826 825 823 822 821 819 818 816 815 814 813 811 809 808 806 805 803 802 800 799 798 796 795 794 793 791 790 788 786 784 783 781 778 776 773 770 767 765 763 761 760 758 756 754 752 751 749 747 745
839 839 839 839 838 838 838 839 839 839 839 839 839 839 839 839 838 838 838 837 837 836 835 835 834 833 832 832 831 830 829 829 828 826 825 824 823 822 820 819 817 816 815 813 812 810 809 808 806 805 803 802 800 798 797 795 794 792 790 789 787 786 785 784 782 780 779 776 774 771 769 766 763 761 758 757 755 754 751 749 747 745 744 742 740
838 838 838 838 838 838 838 838 838 838 838 838 838 838 838 838 838 838 837 837 836 835 834 834 833 832 831 830 829 828 827 826 825 824 822 821 820 819 817 816 815 813 812 810 809 807 806 804 803 801 800 799 797 795 794 792 790 788 786 784 783 781 780 779 777 776 774 772 769 767 764 761 758 756 754 752 751 749 747 744 742 741 739 737 735
838 838 838 838 837 837 837 837 838 838 838 838 838 838 838 838 837 837 836 836 835 834 833 833 832 831 830 829 828 826 825 824 823 822 820 819 818 816 815 814 812 811 809 808 806 805 803 802 800 799 797 796 794 793 791 789 787 785 783 781 779 777 776 775 773 771 770 768 765 762 759 756 753 751 749 747 746 744 742 740 738 736 734 732 730